Time,TemperatureF,DewpointF,PressureIn,WindDirection,WindDirectionDegrees,WindSpeedMPH,WindSpeedGustMPH,Humidity,HourlyPrecipIn,Conditions,Clouds,dailyrainin,SoftwareType,DateUTC
2013-08-20 00:01:00,70.0,60.5,30.02,North,1,0.0,0.0,72,0.00,CLR,,0.00,WeatherDisplay:10.37,2013-08-20 05:01:00,
2013-08-20 00:06:00,70.0,60.5,30.02,North,1,0.0,0.0,72,0.00,CLR,,0.00,WeatherDisplay:10.37,2013-08-20 05:06:00,
2013-08-20 00:11:00,69.8,60.4,30.02,North,1,0.0,0.0,72,0.00,CLR,,0.00,WeatherDisplay:10.37,2013-08-20 05:11:00,
2013-08-20 00:16:00,69.6,60.6,30.02,North,1,0.0,0.0,73,0.00,CLR,,0.00,WeatherDisplay:10.37,2013-08-20 05:16:00,
2013-08-20 00:21:00,69.6,60.6,30.02,North,1,0.0,0.0,73,0.00,CLR,,0.00,WeatherDisplay:10.37,2013-08-20 05:21:00,
2013-08-20 00:26:00,69.6,60.6,30.02,North,1,0.0,0.0,73,0.00,CLR,,0.00,WeatherDisplay:10.37,2013-08-20 05:26:00,
2013-08-20 00:31:00,69.6,60.6,30.02,North,1,0.0,0.0,73,0.00,CLR,,0.00,WeatherDisplay:10.37,2013-08-20 05:31:00,
2013-08-20 00:36:00,69.6,60.6,30.02,North,1,0.0,0.0,73,0.00,CLR,,0.00,WeatherDisplay:10.37,2013-08-20 05:36:00,
2013-08-20 00:41:00,69.6,60.6,30.02,North,1,0.0,0.0,73,0.00,CLR,,0.00,WeatherDisplay:10.37,2013-08-20 05:41:00,
2013-08-20 00:46:00,69.6,60.6,30.03,North,1,0.0,0.0,73,0.00,CLR,,0.00,WeatherDisplay:10.37,2013-08-20 05:46:00,
2013-08-20 00:51:00,69.4,60.4,30.03,North,1,0.0,0.0,73,0.00,CLR,,0.00,WeatherDisplay:10.37,2013-08-20 05:51:00,
2013-08-20 00:56:00,69.4,60.4,30.02,North,1,0.0,0.0,73,0.00,CLR,,0.00,WeatherDisplay:10.37,2013-08-20 05:56:00,
2013-08-20 01:01:00,69.4,60.4,30.02,North,1,0.0,0.0,73,0.00,CLR,,0.00,WeatherDisplay:10.37,2013-08-20 06:01:00,
2013-08-20 01:06:00,69.3,60.2,30.02,North,1,0.0,0.0,73,0.00,CLR,,0.00,WeatherDisplay:10.37,2013-08-20 06:06:00,
2013-08-20 01:11:00,69.3,60.2,30.02,North,1,0.0,0.0,73,0.00,CLR,,0.00,WeatherDisplay:10.37,2013-08-20 06:11:00,
2013-08-20 01:16:00,69.3,60.2,30.02,North,1,0.0,0.0,73,0.00,CLR,,0.00,WeatherDisplay:10.37,2013-08-20 06:16:00,
2013-08-20 01:21:00,69.3,60.2,30.02,North,1,0.0,0.0,73,0.00,CLR,,0.00,WeatherDisplay:10.37,2013-08-20 06:21:00,
2013-08-20 01:26:00,69.3,60.2,30.02,North,1,0.0,0.0,73,0.00,CLR,,0.00,WeatherDisplay:10.37,2013-08-20 06:26:00,
2013-08-20 01:31:00,69.1,60.1,30.02,North,1,0.0,0.0,73,0.00,CLR,,0.00,WeatherDisplay:10.37,2013-08-20 06:31:00,
2013-08-20 01:36:00,69.1,60.1,30.02,North,1,0.0,0.0,73,0.00,CLR,,0.00,WeatherDisplay:10.37,2013-08-20 06:36:00,
2013-08-20 01:41:00,69.1,60.1,30.02,North,1,0.0,0.0,73,0.00,CLR,,0.00,WeatherDisplay:10.37,2013-08-20 06:41:00,
2013-08-20 01:46:00,69.1,60.4,30.02,North,1,0.0,0.0,74,0.00,CLR,,0.00,WeatherDisplay:10.37,2013-08-20 06:46:00,
2013-08-20 01:51:00,69.1,60.4,30.01,North,1,0.0,0.0,74,0.00,CLR,,0.00,WeatherDisplay:10.37,2013-08-20 06:51:00,
2013-08-20 01:56:00,68.9,60.3,30.01,North,1,0.0,0.0,74,0.00,CLR,,0.00,WeatherDisplay:10.37,2013-08-20 06:56:00,
2013-08-20 02:01:00,68.9,60.3,30.01,North,1,0.0,0.0,74,0.00,CLR,,0.00,WeatherDisplay:10.37,2013-08-20 07:01:00,
2013-08-20 02:06:00,68.7,60.1,30.01,North,1,0.0,0.0,74,0.00,CLR,,0.00,WeatherDisplay:10.37,2013-08-20 07:06:00,
2013-08-20 02:11:00,68.7,60.1,30.01,North,1,0.0,0.0,74,0.00,CLR,,0.00,WeatherDisplay:10.37,2013-08-20 07:11:00,
2013-08-20 02:16:00,68.4,59.7,30.01,North,1,0.0,0.0,74,0.00,CLR,,0.00,WeatherDisplay:10.37,2013-08-20 07:16:00,
2013-08-20 02:21:00,68.4,59.7,30.01,North,1,0.0,0.0,74,0.00,CLR,,0.00,WeatherDisplay:10.37,2013-08-20 07:21:00,
2013-08-20 02:26:00,68.4,59.7,30.01,North,1,0.0,0.0,74,0.00,CLR,,0.00,WeatherDisplay:10.37,2013-08-20 07:26:00,
2013-08-20 02:31:00,68.2,60.0,30.01,North,1,0.0,0.0,75,0.00,CLR,,0.00,WeatherDisplay:10.37,2013-08-20 07:31:00,
2013-08-20 02:36:00,68.2,60.0,30.01,North,1,0.0,0.0,75,0.00,CLR,,0.00,WeatherDisplay:10.37,2013-08-20 07:36:00,
2013-08-20 02:41:00,68.2,60.0,30.01,North,1,0.0,0.0,75,0.00,CLR,,0.00,WeatherDisplay:10.37,2013-08-20 07:41:00,
2013-08-20 02:46:00,68.0,59.8,30.01,North,1,0.0,0.0,75,0.00,CLR,,0.00,WeatherDisplay:10.37,2013-08-20 07:46:00,
2013-08-20 02:51:00,67.8,60.0,30.01,North,1,0.0,0.0,76,0.00,CLR,,0.00,WeatherDisplay:10.37,2013-08-20 07:51:00,
2013-08-20 02:56:00,67.8,60.0,30.01,North,1,0.0,0.0,76,0.00,CLR,,0.00,WeatherDisplay:10.37,2013-08-20 07:56:00,
2013-08-20 03:01:00,67.6,59.8,30.01,North,1,0.0,0.0,76,0.00,CLR,,0.00,WeatherDisplay:10.37,2013-08-20 08:01:00,
2013-08-20 03:06:00,67.6,59.8,30.01,North,1,0.0,0.0,76,0.00,CLR,,0.00,WeatherDisplay:10.37,2013-08-20 08:06:00,
2013-08-20 03:11:00,67.5,60.0,30.01,North,1,0.0,0.0,77,0.00,CLR,,0.00,WeatherDisplay:10.37,2013-08-20 08:11:00,
2013-08-20 03:16:00,67.5,60.0,30.01,North,1,0.0,0.0,77,0.00,CLR,,0.00,WeatherDisplay:10.37,2013-08-20 08:16:00,
2013-08-20 03:21:00,67.5,59.6,30.01,North,1,0.0,0.0,76,0.00,CLR,,0.00,WeatherDisplay:10.37,2013-08-20 08:21:00,
2013-08-20 03:26:00,67.3,59.8,30.01,North,1,0.0,0.0,77,0.00,CLR,,0.00,WeatherDisplay:10.37,2013-08-20 08:26:00,
2013-08-20 03:31:00,67.3,59.8,30.01,North,1,0.0,0.0,77,0.00,CLR,,0.00,WeatherDisplay:10.37,2013-08-20 08:31:00,
2013-08-20 03:36:00,67.1,59.6,30.01,North,1,0.0,0.0,77,0.00,CLR,,0.00,WeatherDisplay:10.37,2013-08-20 08:36:00,
2013-08-20 03:41:00,67.1,59.6,30.01,North,1,0.0,0.0,77,0.00,CLR,,0.00,WeatherDisplay:10.37,2013-08-20 08:41:00,
2013-08-20 03:46:00,66.9,59.5,30.01,North,1,0.0,0.0,77,0.00,CLR,,0.00,WeatherDisplay:10.37,2013-08-20 08:46:00,
2013-08-20 03:51:00,66.9,59.8,30.01,North,1,0.0,0.0,78,0.00,CLR,,0.00,WeatherDisplay:10.37,2013-08-20 08:51:00,
2013-08-20 03:56:00,66.7,59.7,30.01,North,1,0.0,0.0,78,0.00,CLR,,0.00,WeatherDisplay:10.37,2013-08-20 08:56:00,
2013-08-20 04:01:00,66.6,59.5,30.01,North,1,0.0,0.0,78,0.00,CLR,,0.00,WeatherDisplay:10.37,2013-08-20 09:01:00,
2013-08-20 04:06:00,66.6,59.5,30.01,North,1,0.0,0.0,78,0.00,CLR,,0.00,WeatherDisplay:10.37,2013-08-20 09:06:00,
2013-08-20 04:11:00,66.6,59.5,30.01,North,1,0.0,0.0,78,0.00,CLR,,0.00,WeatherDisplay:10.37,2013-08-20 09:11:00,
2013-08-20 04:16:00,66.6,59.5,30.01,North,1,0.0,0.0,78,0.00,CLR,,0.00,WeatherDisplay:10.37,2013-08-20 09:16:00,
2013-08-20 04:21:00,66.6,59.5,30.00,North,1,0.0,0.0,78,0.00,CLR,,0.00,WeatherDisplay:10.37,2013-08-20 09:21:00,
2013-08-20 04:26:00,66.6,59.5,30.01,North,1,0.0,0.0,78,0.00,CLR,,0.00,WeatherDisplay:10.37,2013-08-20 09:26:00,
2013-08-20 04:31:00,66.4,59.3,30.00,North,1,0.0,0.0,78,0.00,CLR,,0.00,WeatherDisplay:10.37,2013-08-20 09:31:00,
2013-08-20 04:36:00,66.4,59.3,30.00,North,1,0.0,0.0,78,0.00,CLR,,0.00,WeatherDisplay:10.37,2013-08-20 09:36:00,
2013-08-20 04:41:00,66.2,59.1,30.01,North,1,0.0,0.0,78,0.00,CLR,,0.00,WeatherDisplay:10.37,2013-08-20 09:41:00,
2013-08-20 04:46:00,66.0,59.0,30.01,North,1,0.0,0.0,78,0.00,CLR,,0.00,WeatherDisplay:10.37,2013-08-20 09:46:00,
2013-08-20 04:51:00,66.0,59.3,30.00,North,1,0.0,0.0,79,0.00,CLR,,0.00,WeatherDisplay:10.37,2013-08-20 09:51:00,
2013-08-20 04:56:00,65.8,59.1,30.01,North,1,0.0,0.0,79,0.00,CLR,,0.00,WeatherDisplay:10.37,2013-08-20 09:56:00,
2013-08-20 05:01:00,65.7,59.0,30.01,North,1,0.0,0.0,79,0.00,CLR,,0.00,WeatherDisplay:10.37,2013-08-20 10:01:00,
2013-08-20 05:06:00,65.5,58.8,30.00,North,1,0.0,0.0,79,0.00,CLR,,0.00,WeatherDisplay:10.37,2013-08-20 10:06:00,
2013-08-20 05:11:00,65.5,58.8,30.00,North,1,0.0,0.0,79,0.00,CLR,,0.00,WeatherDisplay:10.37,2013-08-20 10:11:00,
2013-08-20 05:16:00,65.3,59.0,30.00,North,1,0.0,0.0,80,0.00,CLR,,0.00,WeatherDisplay:10.37,2013-08-20 10:16:00,
2013-08-20 05:21:00,65.1,58.8,30.01,North,1,0.0,0.0,80,0.00,CLR,,0.00,WeatherDisplay:10.37,2013-08-20 10:21:00,
2013-08-20 05:26:00,65.1,58.8,30.01,North,1,0.0,0.0,80,0.00,CLR,,0.00,WeatherDisplay:10.37,2013-08-20 10:26:00,
2013-08-20 05:31:00,64.9,58.6,30.01,North,1,0.0,0.0,80,0.00,CLR,,0.00,WeatherDisplay:10.37,2013-08-20 10:31:00,
2013-08-20 05:36:00,64.8,58.4,30.01,North,1,0.0,0.0,80,0.00,CLR,,0.00,WeatherDisplay:10.37,2013-08-20 10:36:00,
2013-08-20 05:41:00,64.8,58.8,30.01,North,1,0.0,0.0,81,0.00,CLR,,0.00,WeatherDisplay:10.37,2013-08-20 10:41:00,
2013-08-20 05:46:00,64.8,58.8,30.01,North,1,0.0,0.0,81,0.00,CLR,,0.00,WeatherDisplay:10.37,2013-08-20 10:46:00,
2013-08-20 05:51:00,64.8,58.8,30.01,North,1,0.0,0.0,81,0.00,CLR,,0.00,WeatherDisplay:10.37,2013-08-20 10:51:00,
2013-08-20 05:56:00,64.8,58.8,30.01,North,1,0.0,0.0,81,0.00,CLR,,0.00,WeatherDisplay:10.37,2013-08-20 10:56:00,
2013-08-20 06:01:00,64.8,58.8,30.01,North,1,0.0,0.0,81,0.00,CLR,,0.00,WeatherDisplay:10.37,2013-08-20 11:01:00,
2013-08-20 06:06:00,64.8,58.8,30.01,North,1,0.0,0.0,81,0.00,CLR,,0.00,WeatherDisplay:10.37,2013-08-20 11:06:00,
2013-08-20 06:11:00,64.8,58.8,30.01,North,1,0.0,0.0,81,0.00,CLR,,0.00,WeatherDisplay:10.37,2013-08-20 11:11:00,
2013-08-20 06:16:00,64.8,58.8,30.01,North,1,0.0,0.0,81,0.00,CLR,,0.00,WeatherDisplay:10.37,2013-08-20 11:16:00,
2013-08-20 06:21:00,64.8,58.8,30.02,North,1,0.0,0.0,81,0.00,CLR,,0.00,WeatherDisplay:10.37,2013-08-20 11:21:00,
2013-08-20 06:26:00,64.8,58.8,30.02,North,1,0.0,0.0,81,0.00,CLR,,0.00,WeatherDisplay:10.37,2013-08-20 11:26:00,
2013-08-20 06:31:00,64.8,58.8,30.02,North,1,0.0,0.0,81,0.00,CLR,,0.00,WeatherDisplay:10.37,2013-08-20 11:31:00,
2013-08-20 06:36:00,64.8,58.8,30.02,North,1,0.0,0.0,81,0.00,CLR,,0.00,WeatherDisplay:10.37,2013-08-20 11:36:00,
2013-08-20 06:41:00,64.8,58.8,30.02,North,1,0.0,0.0,81,0.00,CLR,,0.00,WeatherDisplay:10.37,2013-08-20 11:41:00,
2013-08-20 06:46:00,64.8,58.8,30.02,North,1,0.0,0.0,81,0.00,CLR,,0.00,WeatherDisplay:10.37,2013-08-20 11:46:00,
2013-08-20 06:51:00,64.8,58.8,30.02,North,1,0.0,0.0,81,0.00,CLR,,0.00,WeatherDisplay:10.37,2013-08-20 11:51:00,
2013-08-20 06:56:00,64.9,58.6,30.02,North,1,0.0,0.0,80,0.00,CLR,,0.00,WeatherDisplay:10.37,2013-08-20 11:56:00,
2013-08-20 07:01:00,64.9,58.6,30.02,North,1,0.0,0.0,80,0.00,CLR,,0.00,WeatherDisplay:10.37,2013-08-20 12:01:00,
2013-08-20 07:06:00,65.1,59.1,30.02,North,1,0.0,0.0,81,0.00,CLR,,0.00,WeatherDisplay:10.37,2013-08-20 12:06:00,
2013-08-20 07:11:00,65.1,58.8,30.03,North,1,0.0,0.0,80,0.00,CLR,,0.00,WeatherDisplay:10.37,2013-08-20 12:11:00,
2013-08-20 07:16:00,65.3,59.0,30.03,North,1,0.0,0.0,80,0.00,CLR,,0.00,WeatherDisplay:10.37,2013-08-20 12:16:00,
2013-08-20 07:21:00,65.3,59.0,30.03,North,1,0.0,0.0,80,0.00,CLR,,0.00,WeatherDisplay:10.37,2013-08-20 12:21:00,
2013-08-20 07:26:00,65.5,59.1,30.04,North,1,0.0,0.0,80,0.00,CLR,,0.00,WeatherDisplay:10.37,2013-08-20 12:26:00,
2013-08-20 07:31:00,65.5,59.1,30.04,North,1,0.0,0.0,80,0.00,CLR,,0.00,WeatherDisplay:10.37,2013-08-20 12:31:00,
2013-08-20 07:36:00,65.7,59.3,30.04,North,1,0.0,0.0,80,0.00,CLR,,0.00,WeatherDisplay:10.37,2013-08-20 12:36:00,
2013-08-20 07:41:00,65.8,59.5,30.04,North,1,0.0,0.0,80,0.00,CLR,,0.00,WeatherDisplay:10.37,2013-08-20 12:41:00,
2013-08-20 07:46:00,66.0,60.0,30.04,North,1,0.0,0.0,81,0.00,CLR,,0.00,WeatherDisplay:10.37,2013-08-20 12:46:00,
2013-08-20 07:51:00,66.0,60.0,30.04,North,1,0.0,0.0,81,0.00,CLR,,0.00,WeatherDisplay:10.37,2013-08-20 12:51:00,
2013-08-20 07:56:00,66.4,60.0,30.04,North,1,0.0,0.0,80,0.00,CLR,,0.00,WeatherDisplay:10.37,2013-08-20 12:56:00,
2013-08-20 08:01:00,66.6,60.2,30.04,North,1,0.0,0.0,80,0.00,CLR,,0.00,WeatherDisplay:10.37,2013-08-20 13:01:00,
2013-08-20 08:06:00,66.6,60.2,30.04,North,1,0.0,0.0,80,0.00,CLR,,0.00,WeatherDisplay:10.37,2013-08-20 13:06:00,
2013-08-20 08:11:00,67.1,60.7,30.04,North,1,0.0,0.0,80,0.00,CLR,,0.00,WeatherDisplay:10.37,2013-08-20 13:11:00,
2013-08-20 08:16:00,67.3,60.9,30.05,North,1,0.0,0.0,80,0.00,CLR,,0.00,WeatherDisplay:10.37,2013-08-20 13:16:00,
2013-08-20 08:21:00,67.5,61.1,30.05,North,1,0.0,0.0,80,0.00,CLR,,0.00,WeatherDisplay:10.37,2013-08-20 13:21:00,
2013-08-20 08:26:00,68.2,61.8,30.05,North,1,0.0,0.0,80,0.00,CLR,,0.00,WeatherDisplay:10.37,2013-08-20 13:26:00,
2013-08-20 08:31:00,68.4,61.6,30.05,North,1,0.0,0.0,79,0.00,CLR,,0.00,WeatherDisplay:10.37,2013-08-20 13:31:00,
2013-08-20 08:36:00,68.9,62.1,30.05,North,1,0.0,0.0,79,0.00,CLR,,0.00,WeatherDisplay:10.37,2013-08-20 13:36:00,
2013-08-20 08:41:00,69.6,62.5,30.05,North,1,0.0,0.0,78,0.00,CLR,,0.00,WeatherDisplay:10.37,2013-08-20 13:41:00,
2013-08-20 08:46:00,70.2,63.0,30.05,North,1,0.0,0.0,78,0.00,CLR,,0.00,WeatherDisplay:10.37,2013-08-20 13:46:00,
2013-08-20 08:51:00,71.1,63.1,30.05,North,1,0.0,0.0,76,0.00,CLR,,0.00,WeatherDisplay:10.37,2013-08-20 13:51:00,
2013-08-20 08:56:00,72.1,63.4,30.05,North,1,0.0,0.0,74,0.00,CLR,,0.00,WeatherDisplay:10.37,2013-08-20 13:56:00,
2013-08-20 09:01:00,72.9,64.1,30.05,North,1,0.0,0.0,74,0.00,CLR,,0.00,WeatherDisplay:10.37,2013-08-20 14:01:00,
2013-08-20 09:06:00,72.9,62.9,30.05,North,1,0.0,0.0,71,0.00,CLR,,0.00,WeatherDisplay:10.37,2013-08-20 14:06:00,
2013-08-20 09:11:00,74.1,64.1,30.05,North,1,0.0,0.0,71,0.00,CLR,,0.00,WeatherDisplay:10.37,2013-08-20 14:11:00,
2013-08-20 09:16:00,75.0,63.7,30.05,North,1,0.0,0.0,68,0.00,CLR,,0.00,WeatherDisplay:10.37,2013-08-20 14:16:00,
2013-08-20 09:21:00,75.6,63.8,30.05,North,1,0.0,0.0,67,0.00,CLR,,0.00,WeatherDisplay:10.37,2013-08-20 14:21:00,
2013-08-20 09:26:00,76.1,63.9,30.05,North,1,0.0,0.0,66,0.00,CLR,,0.00,WeatherDisplay:10.37,2013-08-20 14:26:00,
2013-08-20 09:31:00,76.6,64.0,30.05,North,1,0.0,0.0,65,0.00,CLR,,0.00,WeatherDisplay:10.37,2013-08-20 14:31:00,
2013-08-20 09:36:00,77.4,64.7,30.05,North,1,0.0,0.0,65,0.00,CLR,,0.00,WeatherDisplay:10.37,2013-08-20 14:36:00,
2013-08-20 09:41:00,78.1,65.4,30.05,North,1,0.0,0.0,65,0.00,CLR,,0.00,WeatherDisplay:10.37,2013-08-20 14:41:00,
2013-08-20 09:46:00,78.6,65.4,30.05,North,1,0.0,0.0,64,0.00,CLR,,0.00,WeatherDisplay:10.37,2013-08-20 14:46:00,
2013-08-20 09:51:00,79.2,65.5,30.05,North,1,0.0,0.0,63,0.00,CLR,,0.00,WeatherDisplay:10.37,2013-08-20 14:51:00,
2013-08-20 09:56:00,79.5,65.4,30.05,North,1,0.0,0.0,62,0.00,CLR,,0.00,WeatherDisplay:10.37,2013-08-20 14:56:00,
2013-08-20 10:01:00,80.1,65.9,30.05,North,1,0.0,0.0,62,0.00,CLR,,0.00,WeatherDisplay:10.37,2013-08-20 15:01:00,
2013-08-20 10:06:00,80.2,65.6,30.05,North,1,0.0,0.0,61,0.00,CLR,,0.00,WeatherDisplay:10.37,2013-08-20 15:06:00,
2013-08-20 10:11:00,81.0,65.8,30.05,North,1,0.0,0.0,60,0.00,CLR,,0.00,WeatherDisplay:10.37,2013-08-20 15:11:00,
2013-08-20 10:16:00,81.0,65.8,30.05,North,1,0.0,0.0,60,0.00,CLR,,0.00,WeatherDisplay:10.37,2013-08-20 15:16:00,
2013-08-20 10:21:00,81.3,66.1,30.05,North,1,0.0,0.0,60,0.00,CLR,,0.00,WeatherDisplay:10.37,2013-08-20 15:21:00,
2013-08-20 10:26:00,81.7,66.4,30.05,North,1,0.0,0.0,60,0.00,CLR,,0.00,WeatherDisplay:10.37,2013-08-20 15:26:00,
2013-08-20 10:31:00,82.0,66.3,30.05,North,1,0.0,0.0,59,0.00,CLR,,0.00,WeatherDisplay:10.37,2013-08-20 15:31:00,
2013-08-20 10:36:00,82.6,66.8,30.05,North,1,0.0,0.0,59,0.00,CLR,,0.00,WeatherDisplay:10.37,2013-08-20 15:36:00,
2013-08-20 10:41:00,82.8,66.5,30.05,North,1,0.0,0.0,58,0.00,CLR,,0.00,WeatherDisplay:10.37,2013-08-20 15:41:00,
2013-08-20 10:46:00,83.1,66.8,30.05,North,1,0.0,0.0,58,0.00,CLR,,0.00,WeatherDisplay:10.37,2013-08-20 15:46:00,
2013-08-20 10:51:00,83.5,66.6,30.05,North,1,0.0,0.0,57,0.00,CLR,,0.00,WeatherDisplay:10.37,2013-08-20 15:51:00,
2013-08-20 10:56:00,84.0,67.1,30.05,North,1,0.0,0.0,57,0.00,CLR,,0.00,WeatherDisplay:10.37,2013-08-20 15:56:00,
2013-08-20 11:01:00,84.0,67.1,30.05,North,1,0.0,0.0,57,0.00,CLR,,0.00,WeatherDisplay:10.37,2013-08-20 16:01:00,
2013-08-20 11:06:00,84.0,65.6,30.05,North,1,0.0,0.0,54,0.00,CLR,,0.00,WeatherDisplay:10.37,2013-08-20 16:06:00,
2013-08-20 11:11:00,84.4,65.9,30.05,North,1,0.0,0.0,54,0.00,CLR,,0.00,WeatherDisplay:10.37,2013-08-20 16:11:00,
2013-08-20 11:16:00,84.6,65.5,30.05,North,1,0.0,0.0,53,0.00,CLR,,0.00,WeatherDisplay:10.37,2013-08-20 16:16:00,
2013-08-20 11:21:00,84.6,65.0,30.05,North,1,0.0,0.0,52,0.00,CLR,,0.00,WeatherDisplay:10.37,2013-08-20 16:21:00,
2013-08-20 11:26:00,84.7,65.2,30.05,North,1,0.0,0.0,52,0.00,CLR,,0.00,WeatherDisplay:10.37,2013-08-20 16:26:00,
2013-08-20 11:31:00,84.7,65.2,30.05,North,1,0.0,0.0,52,0.00,CLR,,0.00,WeatherDisplay:10.37,2013-08-20 16:31:00,
2013-08-20 11:36:00,84.9,65.9,30.05,North,1,0.0,0.0,53,0.00,CLR,,0.00,WeatherDisplay:10.37,2013-08-20 16:36:00,
2013-08-20 11:41:00,85.8,66.7,30.05,North,1,0.0,0.0,53,0.00,CLR,,0.00,WeatherDisplay:10.37,2013-08-20 16:41:00,
2013-08-20 11:46:00,86.2,66.5,30.05,North,1,0.0,0.0,52,0.00,CLR,,0.00,WeatherDisplay:10.37,2013-08-20 16:46:00,
2013-08-20 11:51:00,86.5,66.3,30.05,North,1,0.0,0.0,51,0.00,CLR,,0.00,WeatherDisplay:10.37,2013-08-20 16:51:00,
2013-08-20 11:56:00,87.4,66.5,30.05,North,1,0.0,0.0,50,0.00,CLR,,0.00,WeatherDisplay:10.37,2013-08-20 16:56:00,
2013-08-20 12:01:00,88.0,66.4,30.05,North,1,0.0,0.0,49,0.00,CLR,,0.00,WeatherDisplay:10.37,2013-08-20 17:01:00,
2013-08-20 12:06:00,88.0,66.4,30.05,North,1,0.0,0.0,49,0.00,CLR,,0.00,WeatherDisplay:10.37,2013-08-20 17:06:00,
2013-08-20 12:11:00,88.0,65.8,30.05,North,1,0.0,0.0,48,0.00,CLR,,0.00,WeatherDisplay:10.37,2013-08-20 17:11:00,
2013-08-20 12:16:00,88.2,66.0,30.05,North,1,0.0,0.0,48,0.00,CLR,,0.00,WeatherDisplay:10.37,2013-08-20 17:16:00,
2013-08-20 12:21:00,88.2,65.4,30.05,North,1,0.0,0.0,47,0.00,CLR,,0.00,WeatherDisplay:10.37,2013-08-20 17:21:00,
2013-08-20 12:26:00,88.2,65.4,30.05,North,1,0.0,0.0,47,0.00,CLR,,0.00,WeatherDisplay:10.37,2013-08-20 17:26:00,
2013-08-20 12:31:00,88.0,64.0,30.05,North,1,0.0,0.0,45,0.00,CLR,,0.00,WeatherDisplay:10.37,2013-08-20 17:31:00,
2013-08-20 12:36:00,88.0,64.6,30.04,North,1,0.0,0.0,46,0.00,CLR,,0.00,WeatherDisplay:10.37,2013-08-20 17:36:00,
2013-08-20 12:41:00,88.0,65.2,30.04,North,1,0.0,0.0,47,0.00,CLR,,0.00,WeatherDisplay:10.37,2013-08-20 17:41:00,
2013-08-20 12:46:00,88.2,65.4,30.04,North,1,0.0,0.0,47,0.00,CLR,,0.00,WeatherDisplay:10.37,2013-08-20 17:46:00,
2013-08-20 12:51:00,88.2,64.8,30.04,North,1,0.0,0.0,46,0.00,CLR,,0.00,WeatherDisplay:10.37,2013-08-20 17:51:00,
2013-08-20 12:56:00,88.2,64.8,30.04,North,1,0.0,0.0,46,0.00,CLR,,0.00,WeatherDisplay:10.37,2013-08-20 17:56:00,
2013-08-20 13:01:00,88.2,64.8,30.03,North,1,0.0,0.0,46,0.00,CLR,,0.00,WeatherDisplay:10.37,2013-08-20 18:01:00,
2013-08-20 13:06:00,88.2,64.8,30.03,North,1,0.0,0.0,46,0.00,CLR,,0.00,WeatherDisplay:10.37,2013-08-20 18:06:00,
2013-08-20 13:11:00,89.2,65.8,30.03,North,1,0.0,0.0,46,0.00,CLR,,0.00,WeatherDisplay:10.37,2013-08-20 18:11:00,
2013-08-20 13:16:00,89.2,65.1,30.03,North,1,0.0,0.0,45,0.00,CLR,,0.00,WeatherDisplay:10.37,2013-08-20 18:16:00,
2013-08-20 13:21:00,89.4,65.9,30.03,North,1,0.0,0.0,46,0.00,CLR,,0.00,WeatherDisplay:10.37,2013-08-20 18:21:00,
2013-08-20 13:26:00,89.8,66.2,30.03,North,1,0.0,0.0,46,0.00,CLR,,0.00,WeatherDisplay:10.37,2013-08-20 18:26:00,
2013-08-20 13:31:00,89.8,66.2,30.03,North,1,0.0,0.0,46,0.00,CLR,,0.00,WeatherDisplay:10.37,2013-08-20 18:31:00,
2013-08-20 13:36:00,89.8,66.2,30.02,North,1,0.0,0.0,46,0.00,CLR,,0.00,WeatherDisplay:10.37,2013-08-20 18:36:00,
2013-08-20 13:41:00,89.8,65.6,30.02,North,1,0.0,0.0,45,0.00,CLR,,0.00,WeatherDisplay:10.37,2013-08-20 18:41:00,
2013-08-20 13:46:00,89.4,65.3,30.02,North,1,0.0,0.0,45,0.00,CLR,,0.00,WeatherDisplay:10.37,2013-08-20 18:46:00,
2013-08-20 13:51:00,89.4,65.9,30.02,North,1,0.0,0.0,46,0.00,CLR,,0.00,WeatherDisplay:10.37,2013-08-20 18:51:00,
2013-08-20 13:56:00,89.4,65.9,30.02,North,1,0.0,0.0,46,0.00,CLR,,0.00,WeatherDisplay:10.37,2013-08-20 18:56:00,
2013-08-20 14:01:00,89.4,65.3,30.02,North,1,0.0,0.0,45,0.00,CLR,,0.00,WeatherDisplay:10.37,2013-08-20 19:01:00,
2013-08-20 14:06:00,89.8,65.6,30.02,North,1,0.0,0.0,45,0.00,CLR,,0.00,WeatherDisplay:10.37,2013-08-20 19:06:00,
2013-08-20 14:11:00,89.6,65.4,30.02,North,1,0.0,0.0,45,0.00,CLR,,0.00,WeatherDisplay:10.37,2013-08-20 19:11:00,
2013-08-20 14:16:00,89.6,65.4,30.02,North,1,0.0,0.0,45,0.00,CLR,,0.00,WeatherDisplay:10.37,2013-08-20 19:16:00,
2013-08-20 14:21:00,89.4,65.3,30.02,North,1,0.0,0.0,45,0.00,CLR,,0.00,WeatherDisplay:10.37,2013-08-20 19:21:00,
2013-08-20 14:26:00,89.2,65.1,30.02,North,1,0.0,0.0,45,0.00,CLR,,0.00,WeatherDisplay:10.37,2013-08-20 19:26:00,
2013-08-20 14:31:00,89.2,65.1,30.01,North,1,0.0,0.0,45,0.00,CLR,,0.00,WeatherDisplay:10.37,2013-08-20 19:31:00,
2013-08-20 14:36:00,89.2,64.5,30.01,North,1,0.0,0.0,44,0.00,CLR,,0.00,WeatherDisplay:10.37,2013-08-20 19:36:00,
2013-08-20 14:41:00,89.1,65.0,30.01,North,1,0.0,0.0,45,0.00,CLR,,0.00,WeatherDisplay:10.37,2013-08-20 19:41:00,
2013-08-20 14:46:00,89.1,65.0,30.01,North,1,0.0,0.0,45,0.00,CLR,,0.00,WeatherDisplay:10.37,2013-08-20 19:46:00,
2013-08-20 14:51:00,89.1,65.0,30.01,North,1,0.0,0.0,45,0.00,CLR,,0.00,WeatherDisplay:10.37,2013-08-20 19:51:00,
2013-08-20 14:56:00,88.9,64.8,30.01,North,1,0.0,0.0,45,0.00,CLR,,0.00,WeatherDisplay:10.37,2013-08-20 19:56:00,
2013-08-20 15:01:00,88.9,64.8,30.01,North,1,0.0,0.0,45,0.00,CLR,,0.00,WeatherDisplay:10.37,2013-08-20 20:01:00,
2013-08-20 15:06:00,88.9,65.4,30.01,North,1,0.0,0.0,46,0.00,CLR,,0.00,WeatherDisplay:10.37,2013-08-20 20:06:00,
2013-08-20 15:11:00,88.9,65.4,30.01,North,1,0.0,0.0,46,0.00,CLR,,0.00,WeatherDisplay:10.37,2013-08-20 20:11:00,
2013-08-20 15:16:00,89.1,65.6,30.01,North,1,0.0,0.0,46,0.00,CLR,,0.00,WeatherDisplay:10.37,2013-08-20 20:16:00,
2013-08-20 15:21:00,88.9,65.4,30.01,North,1,0.0,0.0,46,0.00,CLR,,0.00,WeatherDisplay:10.37,2013-08-20 20:21:00,
2013-08-20 15:26:00,88.7,65.3,30.01,North,1,0.0,0.0,46,0.00,CLR,,0.00,WeatherDisplay:10.37,2013-08-20 20:26:00,
2013-08-20 15:31:00,88.5,65.1,30.01,North,1,0.0,0.0,46,0.00,CLR,,0.00,WeatherDisplay:10.37,2013-08-20 20:31:00,
2013-08-20 15:36:00,88.5,65.1,30.00,North,1,0.0,0.0,46,0.00,CLR,,0.00,WeatherDisplay:10.37,2013-08-20 20:36:00,
2013-08-20 15:41:00,88.5,65.7,30.00,North,1,0.0,0.0,47,0.00,CLR,,0.00,WeatherDisplay:10.37,2013-08-20 20:41:00,
2013-08-20 15:46:00,88.5,65.7,30.00,North,1,0.0,0.0,47,0.00,CLR,,0.00,WeatherDisplay:10.37,2013-08-20 20:46:00,
2013-08-20 15:51:00,88.7,65.9,30.00,North,1,0.0,0.0,47,0.00,CLR,,0.00,WeatherDisplay:10.37,2013-08-20 20:51:00,
2013-08-20 15:56:00,88.9,66.0,30.00,North,1,0.0,0.0,47,0.00,CLR,,0.00,WeatherDisplay:10.37,2013-08-20 20:56:00,
2013-08-20 16:01:00,88.7,65.9,29.99,North,1,0.0,0.0,47,0.00,CLR,,0.00,WeatherDisplay:10.37,2013-08-20 21:01:00,
2013-08-20 16:06:00,88.5,65.7,30.00,North,1,0.0,0.0,47,0.00,CLR,,0.00,WeatherDisplay:10.37,2013-08-20 21:06:00,
2013-08-20 16:11:00,88.2,65.4,29.99,North,1,0.0,0.0,47,0.00,CLR,,0.00,WeatherDisplay:10.37,2013-08-20 21:11:00,
2013-08-20 16:16:00,88.0,65.2,29.99,North,1,0.0,0.0,47,0.00,CLR,,0.00,WeatherDisplay:10.37,2013-08-20 21:16:00,
2013-08-20 16:21:00,88.0,65.8,29.99,North,1,0.0,0.0,48,0.00,CLR,,0.00,WeatherDisplay:10.37,2013-08-20 21:21:00,
2013-08-20 16:26:00,88.0,65.8,30.00,North,1,0.0,0.0,48,0.00,CLR,,0.00,WeatherDisplay:10.37,2013-08-20 21:26:00,
2013-08-20 16:31:00,88.0,65.8,29.99,North,1,0.0,0.0,48,0.00,CLR,,0.00,WeatherDisplay:10.37,2013-08-20 21:31:00,
2013-08-20 16:36:00,88.0,65.8,29.99,North,1,0.0,0.0,48,0.00,CLR,,0.00,WeatherDisplay:10.37,2013-08-20 21:36:00,
2013-08-20 16:41:00,88.0,65.2,29.99,North,1,0.0,0.0,47,0.00,CLR,,0.00,WeatherDisplay:10.37,2013-08-20 21:41:00,
2013-08-20 16:46:00,87.6,64.9,29.99,North,1,0.0,0.0,47,0.00,CLR,,0.00,WeatherDisplay:10.37,2013-08-20 21:46:00,
2013-08-20 16:51:00,87.4,64.7,29.99,North,1,0.0,0.0,47,0.00,CLR,,0.00,WeatherDisplay:10.37,2013-08-20 21:51:00,
2013-08-20 16:56:00,87.1,65.0,29.99,North,1,0.0,0.0,48,0.00,CLR,,0.00,WeatherDisplay:10.37,2013-08-20 21:56:00,
2013-08-20 17:01:00,87.1,65.0,29.99,North,1,0.0,0.0,48,0.00,CLR,,0.00,WeatherDisplay:10.37,2013-08-20 22:01:00,
2013-08-20 17:06:00,87.1,65.0,29.99,North,1,0.0,0.0,48,0.00,CLR,,0.00,WeatherDisplay:10.37,2013-08-20 22:06:00,
2013-08-20 17:11:00,87.1,65.6,29.99,North,1,0.0,0.0,49,0.00,CLR,,0.00,WeatherDisplay:10.37,2013-08-20 22:11:00,
2013-08-20 17:16:00,87.1,65.6,29.99,North,1,0.0,0.0,49,0.00,CLR,,0.00,WeatherDisplay:10.37,2013-08-20 22:16:00,
2013-08-20 17:21:00,87.1,65.6,29.99,North,1,0.0,0.0,49,0.00,CLR,,0.00,WeatherDisplay:10.37,2013-08-20 22:21:00,
2013-08-20 17:26:00,86.9,65.4,29.99,North,1,0.0,0.0,49,0.00,CLR,,0.00,WeatherDisplay:10.37,2013-08-20 22:26:00,
2013-08-20 17:31:00,86.7,65.3,29.99,North,1,0.0,0.0,49,0.00,CLR,,0.00,WeatherDisplay:10.37,2013-08-20 22:31:00,
2013-08-20 17:36:00,86.5,65.1,29.99,North,1,0.0,0.0,49,0.00,CLR,,0.00,WeatherDisplay:10.37,2013-08-20 22:36:00,
2013-08-20 17:41:00,86.4,64.9,29.99,North,1,0.0,0.0,49,0.00,CLR,,0.00,WeatherDisplay:10.37,2013-08-20 22:41:00,
2013-08-20 17:46:00,86.4,65.5,29.99,North,1,0.0,0.0,50,0.00,CLR,,0.00,WeatherDisplay:10.37,2013-08-20 22:46:00,
2013-08-20 17:51:00,86.2,65.4,29.99,North,1,0.0,0.0,50,0.00,CLR,,0.00,WeatherDisplay:10.37,2013-08-20 22:51:00,
2013-08-20 17:56:00,86.2,65.4,29.99,North,1,0.0,0.0,50,0.00,CLR,,0.00,WeatherDisplay:10.37,2013-08-20 22:56:00,
2013-08-20 18:01:00,85.8,65.0,29.99,North,1,0.0,0.0,50,0.00,CLR,,0.00,WeatherDisplay:10.37,2013-08-20 23:01:00,
2013-08-20 18:06:00,85.6,64.9,29.99,North,1,0.0,0.0,50,0.00,CLR,,0.00,WeatherDisplay:10.37,2013-08-20 23:06:00,
2013-08-20 18:11:00,85.5,65.3,29.99,North,1,0.0,0.0,51,0.00,CLR,,0.00,WeatherDisplay:10.37,2013-08-20 23:11:00,
2013-08-20 18:16:00,85.1,64.9,29.99,North,1,0.0,0.0,51,0.00,CLR,,0.00,WeatherDisplay:10.37,2013-08-20 23:16:00,
2013-08-20 18:21:00,84.9,64.8,29.99,North,1,0.0,0.0,51,0.00,CLR,,0.00,WeatherDisplay:10.37,2013-08-20 23:21:00,
2013-08-20 18:26:00,84.6,65.0,29.99,North,1,0.0,0.0,52,0.00,CLR,,0.00,WeatherDisplay:10.37,2013-08-20 23:26:00,
2013-08-20 18:31:00,84.6,65.0,29.99,North,1,0.0,0.0,52,0.00,CLR,,0.00,WeatherDisplay:10.37,2013-08-20 23:31:00,
2013-08-20 18:36:00,84.4,65.4,29.99,North,1,0.0,0.0,53,0.00,CLR,,0.00,WeatherDisplay:10.37,2013-08-20 23:36:00,
2013-08-20 18:41:00,84.4,65.4,29.99,North,1,0.0,0.0,53,0.00,CLR,,0.00,WeatherDisplay:10.37,2013-08-20 23:41:00,
2013-08-20 18:46:00,84.0,65.6,29.99,North,1,0.0,0.0,54,0.00,CLR,,0.00,WeatherDisplay:10.37,2013-08-20 23:46:00,
2013-08-20 18:51:00,83.7,64.7,29.99,North,1,0.0,0.0,53,0.00,CLR,,0.00,WeatherDisplay:10.37,2013-08-20 23:51:00,
2013-08-20 18:56:00,83.5,65.1,29.99,North,1,0.0,0.0,54,0.00,CLR,,0.00,WeatherDisplay:10.37,2013-08-20 23:56:00,
2013-08-20 19:01:00,83.3,64.9,29.99,North,1,0.0,0.0,54,0.00,CLR,,0.00,WeatherDisplay:10.37,2013-08-21 00:01:00,
2013-08-20 19:06:00,82.9,65.1,29.98,North,1,0.0,0.0,55,0.00,CLR,,0.00,WeatherDisplay:10.37,2013-08-21 00:06:00,
2013-08-20 19:11:00,82.8,64.9,29.98,North,1,0.0,0.0,55,0.00,CLR,,0.00,WeatherDisplay:10.37,2013-08-21 00:11:00,
2013-08-20 19:16:00,82.4,65.1,29.98,North,1,0.0,0.0,56,0.00,CLR,,0.00,WeatherDisplay:10.37,2013-08-21 00:16:00,
2013-08-20 19:21:00,82.0,64.8,29.98,North,1,0.0,0.0,56,0.00,CLR,,0.00,WeatherDisplay:10.37,2013-08-21 00:21:00,
2013-08-20 19:26:00,81.9,65.1,29.98,North,1,0.0,0.0,57,0.00,CLR,,0.00,WeatherDisplay:10.37,2013-08-21 00:26:00,
2013-08-20 19:31:00,81.7,65.0,29.99,North,1,0.0,0.0,57,0.00,CLR,,0.00,WeatherDisplay:10.37,2013-08-21 00:31:00,
2013-08-20 19:36:00,81.3,65.1,29.99,North,1,0.0,0.0,58,0.00,CLR,,0.00,WeatherDisplay:10.37,2013-08-21 00:36:00,
2013-08-20 19:41:00,81.0,65.3,29.98,North,1,0.0,0.0,59,0.00,CLR,,0.00,WeatherDisplay:10.37,2013-08-21 00:41:00,
2013-08-20 19:46:00,80.8,65.1,29.98,North,1,0.0,0.0,59,0.00,CLR,,0.00,WeatherDisplay:10.37,2013-08-21 00:46:00,
2013-08-20 19:51:00,80.4,64.8,29.98,North,1,0.0,0.0,59,0.00,CLR,,0.00,WeatherDisplay:10.37,2013-08-21 00:51:00,
2013-08-20 19:56:00,80.1,64.9,29.98,North,1,0.0,0.0,60,0.00,CLR,,0.00,WeatherDisplay:10.37,2013-08-21 00:56:00,
2013-08-20 20:01:00,79.9,64.8,29.98,North,1,0.0,0.0,60,0.00,CLR,,0.00,WeatherDisplay:10.37,2013-08-21 01:01:00,
2013-08-20 20:06:00,79.5,64.4,29.98,North,1,0.0,0.0,60,0.00,CLR,,0.00,WeatherDisplay:10.37,2013-08-21 01:06:00,
2013-08-20 20:11:00,79.5,64.9,29.98,North,1,0.0,0.0,61,0.00,CLR,,0.00,WeatherDisplay:10.37,2013-08-21 01:11:00,
2013-08-20 20:16:00,79.2,64.6,29.98,North,1,0.0,0.0,61,0.00,CLR,,0.00,WeatherDisplay:10.37,2013-08-21 01:16:00,
2013-08-20 20:19:00,79.0,64.4,29.99,North,1,0.0,0.0,61,0.00,CLR,,0.00,WeatherDisplay:10.37,2013-08-21 01:19:00,
2013-08-20 20:24:00,78.6,64.5,29.98,North,1,0.0,0.0,62,0.00,CLR,,0.00,WeatherDisplay:10.37,2013-08-21 01:24:00,
2013-08-20 20:29:00,78.3,64.2,29.99,North,1,0.0,0.0,62,0.00,CLR,,0.00,WeatherDisplay:10.37,2013-08-21 01:29:00,
2013-08-20 20:34:00,78.1,64.5,29.99,North,1,0.0,0.0,63,0.00,CLR,,0.00,WeatherDisplay:10.37,2013-08-21 01:34:00,
2013-08-20 20:39:00,77.9,64.3,29.99,North,1,0.0,0.0,63,0.00,CLR,,0.00,WeatherDisplay:10.37,2013-08-21 01:39:00,
2013-08-20 20:44:00,77.4,64.2,29.99,North,1,0.0,0.0,64,0.00,CLR,,0.00,WeatherDisplay:10.37,2013-08-21 01:44:00,
2013-08-20 20:49:00,77.4,64.2,29.99,North,1,0.0,0.0,64,0.00,CLR,,0.00,WeatherDisplay:10.37,2013-08-21 01:49:00,
2013-08-20 20:54:00,77.2,64.1,29.99,North,1,0.0,0.0,64,0.00,CLR,,0.00,WeatherDisplay:10.37,2013-08-21 01:54:00,
2013-08-20 20:59:00,76.8,64.2,29.99,North,1,0.0,0.0,65,0.00,CLR,,0.00,WeatherDisplay:10.37,2013-08-21 01:59:00,
2013-08-20 21:04:00,76.6,64.0,30.00,North,1,0.0,0.0,65,0.00,CLR,,0.00,WeatherDisplay:10.37,2013-08-21 02:04:00,
2013-08-20 21:09:00,76.5,64.3,30.00,North,1,0.0,0.0,66,0.00,CLR,,0.00,WeatherDisplay:10.37,2013-08-21 02:09:00,
2013-08-20 21:14:00,76.3,64.1,30.00,North,1,0.0,0.0,66,0.00,CLR,,0.00,WeatherDisplay:10.37,2013-08-21 02:14:00,
2013-08-20 21:19:00,76.1,63.9,30.00,North,1,0.0,0.0,66,0.00,CLR,,0.00,WeatherDisplay:10.37,2013-08-21 02:19:00,
2013-08-20 21:24:00,76.1,64.3,30.00,North,1,0.0,0.0,67,0.00,CLR,,0.00,WeatherDisplay:10.37,2013-08-21 02:24:00,
2013-08-20 21:29:00,76.1,64.3,30.00,North,1,0.0,0.0,67,0.00,CLR,,0.00,WeatherDisplay:10.37,2013-08-21 02:29:00,
2013-08-20 21:34:00,75.4,64.1,30.01,North,1,0.0,0.0,68,0.00,CLR,,0.00,WeatherDisplay:10.37,2013-08-21 02:34:00,
2013-08-20 21:39:00,75.2,63.9,30.01,North,1,0.0,0.0,68,0.00,CLR,,0.00,WeatherDisplay:10.37,2013-08-21 02:39:00,
2013-08-20 21:44:00,75.0,63.7,30.01,North,1,0.0,0.0,68,0.00,CLR,,0.00,WeatherDisplay:10.37,2013-08-21 02:44:00,
2013-08-20 21:49:00,74.8,63.6,30.01,North,1,0.0,0.0,68,0.00,CLR,,0.00,WeatherDisplay:10.37,2013-08-21 02:49:00,
2013-08-20 21:54:00,74.7,63.4,30.01,North,1,0.0,0.0,68,0.00,CLR,,0.00,WeatherDisplay:10.37,2013-08-21 02:54:00,
2013-08-20 21:59:00,74.7,63.8,30.01,North,1,0.0,0.0,69,0.00,CLR,,0.00,WeatherDisplay:10.37,2013-08-21 02:59:00,
2013-08-20 22:04:00,74.5,63.6,30.02,North,1,0.0,0.0,69,0.00,CLR,,0.00,WeatherDisplay:10.37,2013-08-21 03:04:00,
2013-08-20 22:09:00,74.5,63.6,30.01,North,1,0.0,0.0,69,0.00,CLR,,0.00,WeatherDisplay:10.37,2013-08-21 03:09:00,
2013-08-20 22:14:00,74.1,63.7,30.02,North,1,0.0,0.0,70,0.00,CLR,,0.00,WeatherDisplay:10.37,2013-08-21 03:14:00,
2013-08-20 22:19:00,74.1,63.7,30.02,North,1,0.0,0.0,70,0.00,CLR,,0.00,WeatherDisplay:10.37,2013-08-21 03:19:00,
2013-08-20 22:24:00,73.9,63.5,30.02,North,1,0.0,0.0,70,0.00,CLR,,0.00,WeatherDisplay:10.37,2013-08-21 03:24:00,
2013-08-20 22:29:00,73.8,63.4,30.02,North,1,0.0,0.0,70,0.00,CLR,,0.00,WeatherDisplay:10.37,2013-08-21 03:29:00,
2013-08-20 22:34:00,73.6,63.6,30.02,North,1,0.0,0.0,71,0.00,CLR,,0.00,WeatherDisplay:10.37,2013-08-21 03:34:00,
2013-08-20 22:39:00,73.6,63.6,30.02,North,1,0.0,0.0,71,0.00,CLR,,0.00,WeatherDisplay:10.37,2013-08-21 03:39:00,
2013-08-20 22:44:00,73.2,63.2,30.02,North,1,0.0,0.0,71,0.00,CLR,,0.00,WeatherDisplay:10.37,2013-08-21 03:44:00,
2013-08-20 22:49:00,73.2,63.2,30.02,North,1,0.0,0.0,71,0.00,CLR,,0.00,WeatherDisplay:10.37,2013-08-21 03:49:00,
2013-08-20 22:54:00,73.2,63.2,30.02,North,1,0.0,0.0,71,0.00,CLR,,0.00,WeatherDisplay:10.37,2013-08-21 03:54:00,
2013-08-20 22:59:00,73.0,63.1,30.02,North,1,0.0,0.0,71,0.00,CLR,,0.00,WeatherDisplay:10.37,2013-08-21 03:59:00,
2013-08-20 23:01:00,73.0,63.1,30.02,North,1,0.0,0.0,71,0.00,CLR,,0.00,WeatherDisplay:10.37,2013-08-21 04:01:00,
2013-08-20 23:06:00,72.9,63.3,30.03,North,1,0.0,0.0,72,0.00,CLR,,0.00,WeatherDisplay:10.37,2013-08-21 04:06:00,
2013-08-20 23:11:00,72.9,63.3,30.03,North,1,0.0,0.0,72,0.00,CLR,,0.00,WeatherDisplay:10.37,2013-08-21 04:11:00,
2013-08-20 23:16:00,72.7,63.1,30.03,North,1,0.0,0.0,72,0.00,CLR,,0.00,WeatherDisplay:10.37,2013-08-21 04:16:00,
2013-08-20 23:21:00,72.7,63.1,30.03,North,1,0.0,0.0,72,0.00,CLR,,0.00,WeatherDisplay:10.37,2013-08-21 04:21:00,
2013-08-20 23:26:00,72.7,63.1,30.03,North,1,0.0,0.0,72,0.00,CLR,,0.00,WeatherDisplay:10.37,2013-08-21 04:26:00,
2013-08-20 23:31:00,72.5,63.4,30.03,North,1,0.0,0.0,73,0.00,CLR,,0.00,WeatherDisplay:10.37,2013-08-21 04:31:00,
2013-08-20 23:36:00,72.3,63.2,30.03,North,1,0.0,0.0,73,0.00,CLR,,0.00,WeatherDisplay:10.37,2013-08-21 04:36:00,
2013-08-20 23:41:00,72.3,63.2,30.03,North,1,0.0,0.0,73,0.00,CLR,,0.00,WeatherDisplay:10.37,2013-08-21 04:41:00,
2013-08-20 23:46:00,72.1,63.0,30.03,North,1,0.0,0.0,73,0.00,CLR,,0.00,WeatherDisplay:10.37,2013-08-21 04:46:00,
2013-08-20 23:51:00,72.0,63.2,30.03,North,1,0.0,0.0,74,0.00,CLR,,0.00,WeatherDisplay:10.37,2013-08-21 04:51:00,
2013-08-20 23:56:00,72.0,63.2,30.04,North,1,0.0,0.0,74,0.00,CLR,,0.00,WeatherDisplay:10.37,2013-08-21 04:56:00,